Volver al catálogo

THORAD AGENA D DEB

ActivoSSO
NORAD 42522·DEBRIS·🇺🇸 United States

Lanzado Apr 8, 1970 desde Vandenberg Space Force Base

Loading…

Próximos Pases (próximas 24 horas)

TLE

ActualizadoSource: Space-Track

Época: Sep 14, 2026, 05:46 UTC

1 42522U 70025SC  26257.24028160  .00000301  00000-0  42893-3 0  9997
2 42522  99.6562   1.8869 0032178 103.9174 256.5551 13.64499430637066

Sigue THORAD AGENA D DEB en tiempo real con AllMySat

Download on the App Store